Regional Weather Roundup
Issued by NWS

Home | Current Version | Previous Version | Text Only | Print | Product List | Glossary On
Versions: 1 2 3 4 5 6 7 8 9 10 11 12 13 14 15 16 17 18 19 20 21 22 23 24 25 26 27 28 29 30 31 32 33 34 35 36 37 38 39 40 41 42 43 44 45 46 47 48 49 50
000
ASUS42 KTBW 272217
RWRFL
FLORIDA REGIONAL WEATHER ROUNDUP
NATIONAL WEATHER SERVICE TAMPA BAY RUSKIN FL
600 PM EDT WED MAY 27 2015

NOTE: "FAIR" INDICATES FEW OR NO CLOUDS BELOW 12,000 FEET WITH NO
SIGNIFICANT WEATHER AND/OR OBSTRUCTIONS TO VISIBILITY.


FLZ001>010-012>015-112-114-115-272300-
PANHANDLE FLORIDA

CITY           SKY/WX    TMP DP  RH WIND       PRES   REMARKS
PENSACOLA      CLOUDY    80  73  79 S10       30.11F
PENSACOLA NAS  PTSUNNY   83  74  74 S12       30.10F
MILTON NAS     CLOUDY    82  71  69 S13       30.11
CRESTVIEW      CLOUDY    77  68  73 SE3       30.13F
DUKE FIELD     PTSUNNY   77  68  72 SE2       30.11F
VALPARAISO     PTSUNNY   81  71  69 SE6       30.11F
MARY ESTHER    PTSUNNY   83  73  71 SE7       30.10F
TRI COUNTY     MOCLDY    74  70  87 S3        30.15F
PANAMA CITY    FAIR      78  69  73 E5        30.13F
APALACHICOLA   CLOUDY    84  72  67 VRB5      30.14S

STATION/POSITION SKY/WX   TEMP    WIND        PRES    WAVE   SWELL
                          AIR SEA DIR/SP/G            HT/PER HT/PER
                          (F)     (DEG/KT/KT) (MB)    (FT/S) (FT/S)
30.1N   87.6W              81 81  170/  6/  8 1019.5    3/ 8   3/ 8
29.2N   88.2W              81 82  130/  2/  4 1019.6    3/ 7   3/ 7
28.8N   86.0W              81 82  130/  6/  8 1020.2    4/ 6   3/ 6
PANAMA CITY BEAC           78 83  130/ 12/ 16 1020.7F
CAPE SAN BLAS    NOT AVBL
TOWER C                    79     130/ 11/ 12 1020.4F
28.5N   84.5W              80 81  100/  8/ 10 1020.5    3/ 5   3/ 5

$$
FLZ011-016>038-118-127-128-134-139-239-272300-
NORTH FLORIDA

CITY           SKY/WX    TMP DP  RH WIND       PRES   REMARKS
MARIANNA       CLOUDY    76  73  91 S7        30.15S
TALLAHASSEE    CLOUDY    79  73  82 NW6       30.14F
PERRY          PTSUNNY   82  70  66 W6        30.14R
CROSS CITY       N/A     90  64  42 E6        30.11F
LAKE CITY      FAIR      86  63  45 E7        30.13S
GAINESVILLE    SUNNY     87  62  43 E10       30.13S
MAYPORT NAS    PTSUNNY   82  66  58 E9        30.17F
JACKSONVILLE   PTSUNNY   83  63  50 E10       30.16S
JAX NAS        PTSUNNY   86  63  45 SE13      30.17S
JAX CRAIG      MOSUNNY   81  65  58 SE10      30.17S
JAX CECIL      MOSUNNY   84  64  51 E12       30.15F
FERNANDINA BEA FAIR      86  68  54 E10       30.17S
ST AUGUSTINE   SUNNY     81  68  64 E9        30.18S

STATION/POSITION SKY/WX   TEMP    WIND        PRES    WAVE   SWELL
                          AIR SEA DIR/SP/G            HT/PER HT/PER
                          (F)     (DEG/KT/KT) (MB)    (FT/S) (FT/S)
SHELL POINT      NOT AVBL
KEATON BEACH               81     240/  8/ 10 1020.6F
CEDAR KEY                  83     250/  6/  8 1020.1F
FERNANDINA                 81 80   90/  5/ 11 1021.4F
MAYPORT                    79 79   70/ 10/ 13 1022.1F
31.4N   80.9W              78 79  140/  6/  8 1022.7    3/ 7   3/ 7
ST AUGUSTINE               78 81   80/  9/ 10 1022.5F

$$
FLZ040-043>046-052-053-057-058-063-144-272300-
INTERIOR CENTRAL FLORIDA

CITY           SKY/WX    TMP DP  RH WIND       PRES   REMARKS
OCALA          MOSUNNY   88  61  40 E7        30.11S
THE VILLAGES     N/A     88  66  48 E13       30.02R
LEESBURG       MOSUNNY   88  61  40 E12       30.13S
SANFORD        MOSUNNY   85  64  49 E16       30.14S
ORLANDO EXEC   MOSUNNY   84  65  52 E16       30.12F
ORLANDO INTL   PTSUNNY   85  67  54 E14G23    30.13S
KISSIMMEE      MOSUNNY   84  66  54 E16       30.12F
WINTER HAVEN   PTSUNNY   88  63  43 E16       30.12F
LAKELAND       MOSUNNY   88  61  40 SE16G22   30.11S
BARTOW         FAIR      86  61  42 E9        30.11F
OKEECHOBEE     SUNNY     84  63  48 E9        30.11F

$$
FLZ041-047-054-059-064-141-147-272300-
EAST CENTRAL FLORIDA

CITY           SKY/WX    TMP DP  RH WIND       PRES   REMARKS
DAYTONA BEACH  PTSUNNY   82  65  56 E13       30.16F
DELAND           N/A     82  63  51 E13       30.16S
NEW SMYRNA BEA MOSUNNY   82  66  57 E12       30.17F
JFK SPACE CTR  MOSUNNY   82  69  64 E10G16    30.13F
TITUSVILLE     PTSUNNY   82  70  65 E14       30.15
CAPE CANAVERAL MOSUNNY   82  69  65 E8        30.12F
PATRICK AFB    MOSUNNY   81  70  69 E14       30.13S
MELBOURNE      MOSUNNY   82  67  60 E14       30.13F
VERO BEACH     MOSUNNY   84  66  54 E14       30.13F
FT PIERCE      MOSUNNY   81  68  64 E10       30.12S

STATION/POSITION SKY/WX   TEMP    WIND        PRES    WAVE   SWELL
                          AIR SEA DIR/SP/G            HT/PER HT/PER
                          (F)     (DEG/KT/KT) (MB)    (FT/S) (FT/S)
28.9N   78.5W              78 80   80/ 14/ 16 1021.9F
TRIDENT PIER               82 83   70/  9/ 13 1021.5F
28.4N   80.5W                 82                N/A     3/ 7

$$
FLZ050-056-061-142-242-148-248-149-249-151-251-155-255-
160-260-272300-
WEST CENTRAL FLORIDA

CITY           SKY/WX    TMP DP  RH WIND       PRES   REMARKS
CRYSTAL RIVER  MOCLDY    88  64  45 CALM      30.09S
INVERNESS      FAIR      90  64  43 E9        30.11S
BROOKSVILLE    SUNNY     89  62  40 E12       30.10F
CLEARWATER     MOSUNNY   89  68  49 NE9       30.08F
TAMPA INTL     MOSUNNY   89  62  40 E9G18     30.09S
TAMPA EXEC     MOSUNNY   88  63  42 E6        30.10R
PLANT CITY     SUNNY     90  63  40 E12G20    30.12S
MACDILL AFB    MOSUNNY   88  67  48 SE8       30.08S
PETER O KNIGHT MOSUNNY   90  64  43 E13       30.09R
ST PETERSBURG  SUNNY     89  68  49 E13       30.07S
SARASOTA       MOSUNNY   90  63  40 NE12      30.05F
VENICE         FAIR      88  64  45 E15       30.07S

STATION/POSITION SKY/WX   TEMP    WIND        PRES    WAVE   SWELL
                          AIR SEA DIR/SP/G            HT/PER HT/PER
                          (F)     (DEG/KT/KT) (MB)    (FT/S) (FT/S)
CEDAR KEY                  83     250/  6/  8 1020.1F
28.5N   84.5W              80 81  100/  8/ 10 1020.5    3/ 5   3/ 5
CLEARWATER BEACH           83 85  310/  9/ 11 1019.2F
MIDDLE TAMPA BAY           86      30/ 12/ 14 1018.9F
VENICE                     89 85   70/  8/ 10 1017.8F

$$
FLZ066-069-070-075>078-162-262-165-265-272300-
SOUTHWEST FLORIDA AND KEYS

CITY           SKY/WX    TMP DP  RH WIND       PRES   REMARKS
PUNTA GORDA    MOSUNNY   88  61  40 E10G25    30.08F
FT MYERS       SUNNY     91  58  32 E14       30.04F
SOUTHWEST INTL MOSUNNY   88  60  38 E13       30.06S
NAPLES         MOSUNNY   90  63  40 NE16      30.04S
MARCO ISLAND     N/A     86  68  54 SE3       30.05S
IMMOKALEE      CLEAR    N/A N/A N/A E13       30.08S
MARATHON       MOSUNNY   85  72  65 E14G24    30.05S
KEY WEST NAS   MOSUNNY   85  71  63 E15G22    30.05S
KEY WEST INTL  MOSUNNY   84  71  65 E14G21    30.05F

STATION/POSITION SKY/WX   TEMP    WIND        PRES    WAVE   SWELL
                          AIR SEA DIR/SP/G            HT/PER HT/PER
                          (F)     (DEG/KT/KT) (MB)    (FT/S) (FT/S)
VENICE                     89 85   70/  8/ 10 1017.8F
NAPLES                     89 85   60/  7/ 12 1017.5F
26.0N   85.6W              81 82   90/ 12/ 14 1018.4    3/ 6   2/ 6
DRY TORTUGAS               82      80/ 13/ 15 1017.6F
SAND KEY                   81      90/ 15/ 19 1017.6
SOMBRERO KEY               82      80/ 18/ 19 1017.8F
LONG KEY                   81 84   80/ 15/ 17 1018.6F
MOLASSES REEF              80 83   80/ 16/ 17 1018.0F

$$
FLZ067-068-071>074-168-172>174-272300-
SOUTHEAST FLORIDA

CITY           SKY/WX    TMP DP  RH WIND       PRES   REMARKS
W PALM BEACH   PTSUNNY   84  67  56 E14       30.11S
FT LAUDER-EXEC MOSUNNY   84  68  58 E14       30.09S
FT LAUDERDALE  MOSUNNY   83  67  58 E14       30.09S
POMPANO BEACH  MOSUNNY   84  67  56 NE12      30.09F
PEMBROKE PINES SUNNY     85  64  49 NE17      30.10S
OPA LOCKA      SUNNY     85  63  47 E15       30.09S
MIAMI          MOSUNNY   85  61  44 NE14      30.08F
WEST KENDALL   SUNNY     84  64  50 E15       30.08S
HOMESTEAD      SUNNY     83  67  57 NE16G22   30.07S

STATION/POSITION SKY/WX   TEMP    WIND        PRES    WAVE   SWELL
                          AIR SEA DIR/SP/G            HT/PER HT/PER
                          (F)     (DEG/KT/KT) (MB)    (FT/S) (FT/S)
PORT EVERGLADES            81      60/ 11/ 15 1019.1F
VIRGINIA KEY               81 84   60/ 12/ 15 1018.3F
LAKE WORTH                 81 83   60/ 10/ 12 1019.2F
SETTLEMENT POINT           80      70/ 22/ 24 1020.3F

$$



USA.gov is the U.S. government's official web portal to all federal, state and local government web resources and services.